EZY42JP LFRB-EGKK

Flight info

Callsign EZY42JP
Flight time 1h 4m
Altitude 26000
Route NORBU DCT NOZHU DCT OTMET
Aircraft A319/M-SDE2E3FGIJ1RWXYZ/LB1

Departure

Time 2026-05-05 20:00
Airport Brest Bretagne airport (LFRB)

Arrival

Time 2026-05-05 21:05
Airport London Gatwick Airport (EGKK)
Time Latitude Longitude Altitude Speed Heading
2026-05-05 19:47 48.44425 -4.41951 317 ft 0 kts 201°
2026-05-05 19:50 48.44426 -4.41951 317 ft 1 kts 201°
2026-05-05 19:50 48.44439 -4.41944 317 ft 2 kts 189°
2026-05-05 19:50 48.44454 -4.41942 317 ft 2 kts 180°
2026-05-05 19:51 48.44469 -4.41944 317 ft 2 kts 168°
2026-05-05 19:51 48.44483 -4.41950 317 ft 2 kts 158°
2026-05-05 19:51 48.44497 -4.41958 317 ft 2 kts 161°
2026-05-05 19:51 48.44511 -4.41965 317 ft 2 kts 160°
2026-05-05 19:52 48.44526 -4.41973 317 ft 2 kts 161°
2026-05-05 19:52 48.44537 -4.41979 317 ft 0 kts 160°
2026-05-05 19:52 48.44551 -4.41985 317 ft 1 kts 166°
2026-05-05 19:52 48.44557 -4.41988 317 ft 1 kts 162°
2026-05-05 19:53 48.44558 -4.41988 317 ft 0 kts 161°
2026-05-05 19:56 48.44555 -4.41986 317 ft 1 kts 161°
2026-05-05 19:56 48.44531 -4.41981 317 ft 5 kts 181°
2026-05-05 19:56 48.44504 -4.42032 317 ft 8 kts 255°
2026-05-05 19:57 48.44547 -4.42090 317 ft 11 kts 343°
2026-05-05 19:57 48.44597 -4.42115 317 ft 11 kts 340°
2026-05-05 19:57 48.44699 -4.42199 317 ft 13 kts 280°
2026-05-05 19:57 48.44673 -4.42342 312 ft 18 kts 251°
2026-05-05 19:58 48.44626 -4.42559 303 ft 25 kts 251°
2026-05-05 19:58 48.44561 -4.42839 291 ft 31 kts 252°
2026-05-05 19:58 48.44498 -4.43123 289 ft 27 kts 251°
2026-05-05 19:58 48.44437 -4.43392 287 ft 27 kts 251°
2026-05-05 19:59 48.44375 -4.43658 285 ft 23 kts 251°
2026-05-05 19:59 48.44340 -4.43811 284 ft 6 kts 301°
2026-05-05 19:59 48.44360 -4.43768 284 ft 8 kts 91°
2026-05-05 19:59 48.44380 -4.43653 285 ft 29 kts 71°
2026-05-05 20:00 48.44526 -4.43002 291 ft 101 kts 71°
2026-05-05 20:00 48.44821 -4.41702 327 ft 158 kts 70°
2026-05-05 20:00 48.45180 -4.40069 846 ft 166 kts 69°
2026-05-05 20:00 48.45711 -4.38607 1653 ft 159 kts 40°
2026-05-05 20:01 48.46582 -4.37676 2401 ft 158 kts 30°
2026-05-05 20:01 48.47566 -4.36787 2880 ft 174 kts 30°
2026-05-05 20:01 48.48638 -4.35774 3349 ft 191 kts 32°
2026-05-05 20:01 48.49825 -4.34603 3751 ft 214 kts 30°
2026-05-05 20:02 48.51277 -4.33902 4265 ft 232 kts
2026-05-05 20:02 48.52910 -4.34232 4878 ft 247 kts 349°
2026-05-05 20:02 48.54614 -4.34835 5695 ft 254 kts 348°
2026-05-05 20:02 48.56343 -4.35415 6602 ft 257 kts 349°
2026-05-05 20:03 48.58097 -4.35952 7493 ft 260 kts 350°
2026-05-05 20:03 48.59870 -4.36460 8350 ft 264 kts 350°
2026-05-05 20:03 48.61667 -4.36958 9208 ft 267 kts 350°
2026-05-05 20:03 48.63506 -4.37587 10067 ft 271 kts 346°
2026-05-05 20:04 48.65318 -4.38363 10732 ft 281 kts 345°
2026-05-05 20:04 48.67268 -4.39224 11170 ft 299 kts 345°
2026-05-05 20:04 48.69303 -4.40126 11553 ft 317 kts 345°
2026-05-05 20:04 48.71492 -4.41091 12068 ft 330 kts 346°
2026-05-05 20:05 48.73759 -4.41552 12769 ft 334 kts
2026-05-05 20:05 48.76039 -4.40968 13510 ft 336 kts 19°
2026-05-05 20:05 48.78191 -4.39636 14220 ft 340 kts 24°
2026-05-05 20:05 48.80369 -4.38152 14912 ft 344 kts 25°
2026-05-05 20:06 48.82552 -4.36649 15590 ft 348 kts 25°
2026-05-05 20:06 48.84759 -4.35133 16266 ft 351 kts 25°
2026-05-05 20:06 48.87014 -4.33590 16925 ft 355 kts 25°
2026-05-05 20:06 48.89234 -4.32073 17535 ft 358 kts 25°
2026-05-05 20:07 48.91537 -4.30499 18146 ft 362 kts 25°
2026-05-05 20:07 48.93831 -4.28933 18737 ft 365 kts 25°
2026-05-05 20:07 48.96122 -4.27366 19442 ft 365 kts 25°
2026-05-05 20:07 48.98426 -4.25789 20252 ft 362 kts 25°
2026-05-05 20:08 49.00706 -4.24227 21013 ft 360 kts 25°
2026-05-05 20:08 49.02968 -4.22676 21727 ft 360 kts 24°
2026-05-05 20:08 49.05257 -4.21107 22443 ft 358 kts 24°
2026-05-05 20:08 49.07506 -4.19562 23152 ft 357 kts 24°
2026-05-05 20:09 49.09734 -4.18032 23854 ft 356 kts 24°
2026-05-05 20:09 49.12011 -4.16475 24557 ft 354 kts 24°
2026-05-05 20:09 49.14241 -4.14952 25195 ft 354 kts 24°
2026-05-05 20:09 49.16500 -4.13404 25805 ft 355 kts 24°
2026-05-05 20:10 49.18725 -4.11876 26386 ft 355 kts 25°
2026-05-05 20:10 49.20967 -4.10331 26919 ft 357 kts 25°
2026-05-05 20:10 49.23253 -4.08754 27387 ft 361 kts 25°
2026-05-05 20:10 49.25540 -4.07174 27830 ft 363 kts 25°
2026-05-05 20:11 49.27837 -4.05582 27982 ft 365 kts 25°
2026-05-05 20:11 49.30156 -4.03974 27980 ft 365 kts 25°
2026-05-05 20:11 49.32475 -4.02362 27982 ft 366 kts 25°
2026-05-05 20:11 49.34771 -4.00765 27983 ft 367 kts 24°
2026-05-05 20:12 49.37093 -3.99151 27988 ft 367 kts 25°
2026-05-05 20:12 49.39417 -3.97535 27987 ft 367 kts 25°
2026-05-05 20:12 49.41720 -3.95928 27987 ft 368 kts 24°
2026-05-05 20:12 49.44057 -3.94295 27987 ft 368 kts 24°
2026-05-05 20:13 49.46385 -3.92670 27985 ft 369 kts 24°
2026-05-05 20:13 49.48721 -3.91038 27986 ft 369 kts 24°
2026-05-05 20:13 49.51052 -3.89408 27985 ft 370 kts 24°
2026-05-05 20:13 49.53384 -3.87774 27984 ft 370 kts 24°
2026-05-05 20:14 49.55728 -3.86129 27983 ft 371 kts 24°
2026-05-05 20:14 49.58081 -3.84475 27985 ft 372 kts 24°
2026-05-05 20:14 49.60408 -3.82840 27986 ft 372 kts 24°
2026-05-05 20:14 49.62745 -3.81196 27987 ft 372 kts 24°
2026-05-05 20:15 49.65117 -3.79525 27984 ft 372 kts 24°
2026-05-05 20:15 49.67450 -3.77842 27982 ft 372 kts 26°
2026-05-05 20:15 49.69688 -3.75892 27981 ft 373 kts 31°
2026-05-05 20:15 49.71811 -3.73611 27980 ft 373 kts 36°
2026-05-05 20:16 49.73854 -3.71133 27979 ft 374 kts 37°
2026-05-05 20:16 49.75883 -3.68612 27979 ft 374 kts 38°
2026-05-05 20:16 49.77904 -3.66096 27977 ft 373 kts 38°
2026-05-05 20:16 49.79908 -3.63600 27978 ft 374 kts 38°
2026-05-05 20:17 49.81939 -3.61075 27978 ft 374 kts 38°
2026-05-05 20:17 49.83962 -3.58561 27979 ft 373 kts 38°
2026-05-05 20:17 49.85981 -3.56048 27981 ft 374 kts 38°
2026-05-05 20:17 49.88016 -3.53516 27980 ft 374 kts 38°
2026-05-05 20:18 49.90009 -3.51035 27981 ft 374 kts 38°
2026-05-05 20:18 49.92058 -3.48481 27979 ft 374 kts 38°
2026-05-05 20:18 49.94118 -3.45909 27980 ft 374 kts 38°
2026-05-05 20:18 49.96170 -3.43348 27980 ft 374 kts 38°
2026-05-05 20:19 49.98194 -3.40817 27977 ft 373 kts 38°
2026-05-05 20:19 50.00214 -3.38286 27979 ft 374 kts 38°
2026-05-05 20:19 50.02235 -3.35754 27978 ft 374 kts 38°
2026-05-05 20:19 50.04272 -3.33193 27980 ft 374 kts 38°
2026-05-05 20:20 50.06272 -3.30667 27980 ft 374 kts 38°
2026-05-05 20:20 50.08288 -3.28119 27979 ft 374 kts 39°
2026-05-05 20:20 50.10300 -3.25578 27978 ft 373 kts 38°
2026-05-05 20:20 50.12338 -3.23019 27978 ft 373 kts 38°
2026-05-05 20:21 50.14380 -3.20457 27979 ft 374 kts 38°
2026-05-05 20:21 50.16442 -3.17862 27980 ft 374 kts 38°
2026-05-05 20:21 50.18459 -3.15318 27979 ft 374 kts 38°
2026-05-05 20:21 50.20488 -3.12754 27979 ft 374 kts 38°
2026-05-05 20:22 50.22501 -3.10205 27979 ft 375 kts 38°
2026-05-05 20:22 50.24536 -3.07624 27977 ft 374 kts 38°
2026-05-05 20:22 50.26547 -3.05070 27976 ft 374 kts 38°
2026-05-05 20:22 50.28577 -3.02488 27977 ft 375 kts 38°
2026-05-05 20:23 50.30580 -2.99939 27976 ft 374 kts 38°
2026-05-05 20:23 50.32624 -2.97331 27979 ft 375 kts 38°
2026-05-05 20:23 50.34661 -2.94731 27978 ft 376 kts 38°
2026-05-05 20:23 50.36711 -2.92112 27977 ft 375 kts 38°
2026-05-05 20:24 50.38735 -2.89525 27975 ft 375 kts 38°
2026-05-05 20:24 50.40754 -2.86938 27975 ft 375 kts 38°
2026-05-05 20:24 50.42777 -2.84343 27975 ft 375 kts 38°
2026-05-05 20:24 50.44820 -2.81719 27976 ft 376 kts 38°
2026-05-05 20:25 50.46851 -2.79108 27976 ft 376 kts 38°
2026-05-05 20:25 50.48883 -2.76495 27976 ft 376 kts 38°
2026-05-05 20:25 50.50911 -2.73885 27975 ft 376 kts 38°
2026-05-05 20:25 50.52935 -2.71275 27974 ft 376 kts 38°
2026-05-05 20:26 50.54991 -2.68620 27975 ft 377 kts 38°
2026-05-05 20:26 50.57045 -2.65964 27975 ft 377 kts 38°
2026-05-05 20:26 50.59099 -2.63305 27974 ft 377 kts 38°
2026-05-05 20:26 50.61084 -2.60648 27967 ft 378 kts 45°
2026-05-05 20:27 50.62533 -2.57226 27955 ft 376 kts 70°
2026-05-05 20:27 50.62974 -2.53184 27980 ft 376 kts 88°
2026-05-05 20:27 50.63018 -2.49086 27973 ft 378 kts 89°
2026-05-05 20:27 50.63054 -2.44908 27972 ft 379 kts 89°
2026-05-05 20:28 50.63125 -2.40735 27970 ft 379 kts 88°
2026-05-05 20:28 50.63224 -2.36637 27968 ft 378 kts 87°
2026-05-05 20:28 50.63347 -2.32414 27966 ft 377 kts 88°
2026-05-05 20:28 50.63479 -2.28210 27967 ft 377 kts 88°
2026-05-05 20:29 50.63615 -2.24056 27968 ft 378 kts 88°
2026-05-05 20:29 50.63753 -2.19868 27966 ft 377 kts 87°
2026-05-05 20:29 50.63891 -2.15726 27965 ft 376 kts 87°
2026-05-05 20:29 50.64025 -2.11666 27811 ft 377 kts 87°
2026-05-05 20:30 50.64160 -2.07536 27525 ft 374 kts 87°
2026-05-05 20:30 50.64293 -2.03425 27226 ft 371 kts 87°
2026-05-05 20:30 50.64422 -1.99410 26835 ft 369 kts 87°
2026-05-05 20:30 50.64551 -1.95320 26382 ft 367 kts 86°
2026-05-05 20:31 50.64679 -1.91259 25922 ft 367 kts 86°
2026-05-05 20:31 50.64804 -1.87243 25468 ft 366 kts 86°
2026-05-05 20:31 50.64929 -1.83204 24988 ft 366 kts 86°
2026-05-05 20:31 50.65051 -1.79238 24511 ft 366 kts 86°
2026-05-05 20:32 50.65173 -1.75195 24032 ft 366 kts 85°
2026-05-05 20:32 50.65295 -1.71134 23559 ft 365 kts 85°
2026-05-05 20:32 50.65417 -1.67083 23091 ft 366 kts 85°
2026-05-05 20:32 50.65534 -1.63116 22630 ft 365 kts 85°
2026-05-05 20:33 50.65651 -1.59115 22168 ft 364 kts 85°
2026-05-05 20:33 50.65765 -1.55126 21690 ft 364 kts 85°
2026-05-05 20:33 50.65878 -1.51087 21193 ft 364 kts 85°
2026-05-05 20:33 50.65988 -1.47071 20710 ft 364 kts 86°
2026-05-05 20:34 50.66097 -1.43101 20220 ft 364 kts 86°
2026-05-05 20:34 50.66206 -1.39082 19701 ft 364 kts 85°
2026-05-05 20:34 50.66459 -1.35085 19186 ft 363 kts 78°
2026-05-05 20:34 50.67034 -1.31235 18653 ft 363 kts 72°
2026-05-05 20:35 50.67905 -1.27464 18107 ft 363 kts 68°
2026-05-05 20:35 50.68850 -1.23769 17613 ft 362 kts 67°
2026-05-05 20:35 50.69801 -1.20094 17191 ft 360 kts 67°
2026-05-05 20:35 50.70741 -1.16447 16757 ft 357 kts 67°
2026-05-05 20:36 50.71674 -1.12809 16328 ft 355 kts 67°
2026-05-05 20:36 50.72602 -1.09175 15891 ft 353 kts 67°
2026-05-05 20:36 50.73518 -1.05577 15460 ft 352 kts 67°
2026-05-05 20:36 50.74432 -1.01978 15025 ft 350 kts 67°
2026-05-05 20:37 50.75323 -0.98455 14597 ft 348 kts 67°
2026-05-05 20:37 50.75932 -0.96047 14307 ft 347 kts 67°
2026-05-05 20:37 50.77119 -0.91353 13742 ft 344 kts 67°
2026-05-05 20:37 50.78004 -0.87841 13319 ft 342 kts 67°
2026-05-05 20:38 50.78881 -0.84350 13125 ft 331 kts 67°
2026-05-05 20:38 50.79726 -0.80982 13054 ft 316 kts 67°
2026-05-05 20:38 50.80514 -0.77807 12978 ft 303 kts 69°
2026-05-05 20:38 50.81138 -0.74691 12917 ft 291 kts 74°
2026-05-05 20:39 50.81578 -0.71529 12925 ft 295 kts 78°
2026-05-05 20:39 50.81966 -0.68251 12940 ft 297 kts 78°
2026-05-05 20:39 50.82337 -0.65031 12933 ft 297 kts 78°
2026-05-05 20:39 50.82712 -0.61774 12934 ft 297 kts 78°
2026-05-05 20:40 50.83081 -0.58579 12928 ft 298 kts 78°
2026-05-05 20:40 50.83454 -0.55345 12910 ft 298 kts 78°
2026-05-05 20:40 50.83825 -0.52137 12909 ft 298 kts 78°
2026-05-05 20:40 50.84205 -0.48840 12638 ft 299 kts 78°
2026-05-05 20:41 50.84581 -0.45570 12292 ft 296 kts 78°
2026-05-05 20:41 50.84948 -0.42368 11963 ft 294 kts 78°
2026-05-05 20:41 50.85309 -0.39197 11641 ft 291 kts 78°
2026-05-05 20:41 50.85670 -0.36029 11322 ft 288 kts 78°
2026-05-05 20:42 50.86030 -0.32853 10967 ft 287 kts 78°
2026-05-05 20:42 50.86385 -0.29709 10631 ft 284 kts 78°
2026-05-05 20:42 50.86729 -0.26657 10325 ft 281 kts 78°
2026-05-05 20:42 50.87080 -0.23546 10036 ft 277 kts 78°
2026-05-05 20:43 50.87417 -0.20553 9757 ft 273 kts 78°
2026-05-05 20:43 50.87747 -0.17620 9476 ft 270 kts 78°
2026-05-05 20:43 50.88076 -0.14680 9342 ft 261 kts 78°
2026-05-05 20:43 50.88390 -0.11875 9279 ft 248 kts 78°
2026-05-05 20:44 50.88696 -0.09215 9182 ft 239 kts 74°
2026-05-05 20:44 50.89454 -0.06913 8889 ft 234 kts 43°
2026-05-05 20:44 50.90828 -0.05628 8638 ft 229 kts 13°
2026-05-05 20:44 50.92400 -0.05593 8369 ft 229 kts 345°
2026-05-05 20:45 50.95184 -0.08063 7874 ft 225 kts 329°
2026-05-05 20:45 50.96523 -0.09417 7635 ft 224 kts 330°
2026-05-05 20:45 50.97807 -0.10803 7395 ft 224 kts 319°
2026-05-05 20:46 50.98617 -0.12947 7173 ft 227 kts 284°
2026-05-05 20:46 50.98696 -0.15464 6998 ft 235 kts 272°
2026-05-05 20:46 50.98702 -0.18048 6956 ft 231 kts 276°
2026-05-05 20:46 50.98797 -0.20589 6948 ft 230 kts 270°
2026-05-05 20:47 50.98253 -0.22984 6929 ft 233 kts 230°
2026-05-05 20:47 50.96899 -0.24440 6938 ft 234 kts 196°
2026-05-05 20:47 50.95294 -0.24564 6942 ft 232 kts 163°
2026-05-05 20:47 50.93900 -0.23359 6947 ft 227 kts 130°
2026-05-05 20:48 50.93137 -0.21243 6955 ft 221 kts 102°
2026-05-05 20:48 50.92802 -0.18821 6956 ft 223 kts 98°
2026-05-05 20:48 50.92486 -0.16389 6949 ft 223 kts 99°
2026-05-05 20:48 50.92153 -0.13941 6948 ft 224 kts 99°
2026-05-05 20:49 50.91812 -0.11532 6952 ft 224 kts 99°
2026-05-05 20:49 50.91465 -0.09136 6961 ft 224 kts 99°
2026-05-05 20:49 50.91200 -0.06703 6943 ft 220 kts 83°
2026-05-05 20:49 50.91671 -0.04460 6950 ft 212 kts 51°
2026-05-05 20:50 50.92800 -0.03005 6938 ft 210 kts 21°
2026-05-05 20:50 50.93756 -0.02644 6937 ft 211 kts
2026-05-05 20:50 50.95618 -0.03576 6931 ft 216 kts 322°
2026-05-05 20:50 50.96503 -0.05520 6935 ft 223 kts 291°
2026-05-05 20:51 50.96892 -0.07930 6957 ft 227 kts 285°
2026-05-05 20:51 50.97232 -0.10391 6946 ft 227 kts 285°
2026-05-05 20:51 50.97580 -0.12864 6946 ft 227 kts 286°
2026-05-05 20:51 50.97934 -0.15359 6893 ft 224 kts 286°
2026-05-05 20:52 50.98280 -0.17772 6594 ft 224 kts 287°
2026-05-05 20:52 50.98647 -0.20182 6296 ft 225 kts 287°
2026-05-05 20:52 50.99016 -0.22610 6040 ft 223 kts 287°
2026-05-05 20:52 50.99374 -0.24994 5987 ft 223 kts 287°
2026-05-05 20:53 50.99739 -0.27408 5976 ft 224 kts 287°
2026-05-05 20:53 51.00112 -0.29848 5977 ft 224 kts 287°
2026-05-05 20:53 51.00485 -0.32273 5975 ft 224 kts 287°
2026-05-05 20:53 51.00861 -0.34719 5973 ft 224 kts 287°
2026-05-05 20:54 51.01225 -0.37083 5785 ft 223 kts 287°
2026-05-05 20:54 51.01603 -0.39525 5256 ft 235 kts 287°
2026-05-05 20:54 51.02002 -0.42091 4874 ft 238 kts 287°
2026-05-05 20:54 51.02395 -0.44644 4576 ft 238 kts 287°
2026-05-05 20:55 51.02792 -0.47248 4306 ft 236 kts 287°
2026-05-05 20:55 51.03179 -0.49806 4149 ft 229 kts 287°
2026-05-05 20:55 51.03547 -0.52267 4003 ft 222 kts 287°
2026-05-05 20:55 51.03887 -0.54574 3995 ft 209 kts 287°
2026-05-05 20:56 51.04204 -0.56785 3969 ft 197 kts 287°
2026-05-05 20:56 51.04506 -0.58892 3966 ft 196 kts 287°
2026-05-05 20:56 51.04811 -0.60999 3975 ft 195 kts 287°
2026-05-05 20:56 51.05323 -0.63006 3962 ft 187 kts 317°
2026-05-05 20:57 51.06402 -0.64018 3955 ft 176 kts 358°
2026-05-05 20:57 51.07630 -0.63904 3975 ft 176 kts 13°
2026-05-05 20:57 51.08828 -0.63483 3970 ft 172 kts 16°
2026-05-05 20:57 51.09832 -0.62704 3935 ft 156 kts 52°
2026-05-05 20:58 51.10163 -0.61122 3969 ft 155 kts 87°
2026-05-05 20:58 51.10095 -0.59384 3977 ft 159 kts 93°
2026-05-05 20:58 51.09969 -0.57640 3980 ft 159 kts 91°
2026-05-05 20:58 51.09927 -0.55878 3992 ft 157 kts 84°
2026-05-05 20:59 51.10019 -0.54149 3979 ft 156 kts 80°
2026-05-05 20:59 51.10226 -0.52457 3968 ft 156 kts 75°
2026-05-05 20:59 51.10480 -0.50769 3906 ft 158 kts 74°
2026-05-05 20:59 51.10729 -0.49082 3747 ft 156 kts 75°
2026-05-05 21:00 51.10968 -0.47397 3543 ft 155 kts 75°
2026-05-05 21:00 51.11196 -0.45733 3323 ft 153 kts 75°
2026-05-05 21:00 51.11420 -0.44065 3192 ft 154 kts 75°
2026-05-05 21:00 51.11639 -0.42417 2974 ft 152 kts 75°
2026-05-05 21:01 51.11857 -0.40778 2761 ft 151 kts 75°
2026-05-05 21:01 51.12074 -0.39146 2552 ft 150 kts 75°
2026-05-05 21:01 51.12291 -0.37526 2343 ft 148 kts 75°
2026-05-05 21:01 51.12507 -0.35927 2139 ft 148 kts 75°
2026-05-05 21:02 51.12719 -0.34350 1927 ft 142 kts 75°
2026-05-05 21:02 51.12918 -0.32880 1726 ft 134 kts 75°
2026-05-05 21:02 51.13118 -0.31415 1546 ft 134 kts 75°
2026-05-05 21:02 51.13316 -0.29961 1409 ft 134 kts 75°
2026-05-05 21:03 51.13512 -0.28528 1218 ft 133 kts 75°
2026-05-05 21:03 51.13710 -0.27080 1032 ft 132 kts 76°
2026-05-05 21:03 51.13904 -0.25660 853 ft 132 kts 76°
2026-05-05 21:03 51.14101 -0.24222 672 ft 132 kts 76°
2026-05-05 21:04 51.14302 -0.22803 479 ft 130 kts 76°
2026-05-05 21:04 51.14489 -0.21423 330 ft 127 kts 78°
2026-05-05 21:04 51.14669 -0.20081 202 ft 119 kts 77°
2026-05-05 21:04 51.14821 -0.18980 201 ft 83 kts 77°
2026-05-05 21:05 51.14920 -0.18264 200 ft 42 kts 78°
2026-05-05 21:05 51.14988 -0.17937 201 ft 26 kts 53°
2026-05-05 21:05 51.15076 -0.17761 200 ft 10 kts 37°
2026-05-05 21:05 51.15142 -0.17763 200 ft 10 kts 350°
2026-05-05 21:06 51.15222 -0.17780 200 ft 13 kts 354°
2026-05-05 21:06 51.15263 -0.17706 199 ft 11 kts 79°
2026-05-05 21:06 51.15280 -0.17568 200 ft 14 kts 78°
2026-05-05 21:06 51.15303 -0.17402 200 ft 16 kts 73°
2026-05-05 21:07 51.15374 -0.17378 199 ft 12 kts 346°
2026-05-05 21:07 51.15472 -0.17413 199 ft 16 kts 348°
2026-05-05 21:07 51.15598 -0.17456 198 ft 20 kts 347°
2026-05-05 21:07 51.15721 -0.17500 197 ft 13 kts 347°
2026-05-05 21:08 51.15749 -0.17600 197 ft 11 kts 257°
2026-05-05 21:08 51.15733 -0.17705 197 ft 6 kts 257°
2026-05-05 21:08 51.15713 -0.17718 197 ft 4 kts 166°
2026-05-05 21:08 51.15680 -0.17704 197 ft 5 kts 164°
2026-05-05 21:09 51.15660 -0.17696 197 ft 0 kts 167°